Content
SEND FEEDBACK

Daily
Averages
Monthly
Summary
United States of America

GALVA, IOWA


Home > North America > United States > Iowa
Elevation: 1400 feet     Latitude: 42 30N     Longitude: 095 24W

WEATHER
 
SELECT A DAY
Number of Records: 410,544;   Date Range: 4/23/95 - 9/30/14
 
SHARE

PRINT THIS DATA

[ ← Previous Day ]
WEATHER ALMANAC - FEBRUARY 13, 2013
[ Next Day → ]
[ °C ]   °F
Weather ElementAverageHighLow
Temperature34.6 °F48.2 °F (3:35 pm)24.8 °F (1:55 am)
Dewpoint29.4 °F35.6 °F (1:15 pm)23 °F (1:55 am)
Humidity82.5 %100 % (7:55 am)57 % (2:55 pm)
Barometer29.72 in29.84 in (12:35 am)29.63 in (4:55 pm)
Wind Speed12.1 mph19.6 mph (2:55 pm)
Wind Gust25.3 mph (2:55 pm)
Weather ElementAverage
Visibility10 mi
Wind DirectionWSW (260.4 °)

Weather ElementTotal
Precipitation---
Heating Degree Days28.5 (Base 65)
Averaged from 71 records on February 13, 2013
WEATHER CONDITIONS BREAKOUT
WIND DIRECTION BREAKOUT
WEATHER BY HOUR - FEBRUARY 13, 2013
[ °C ]   °F
Local TimeTemperatureDewpointHumidityBarometerVisibilityWind DirectionWind SpeedGust SpeedPrecipitationEventsConditions
12:35 AM26.6 °F24.8 °F93 %29.84 in10.0 miWest (270°)11.5 mphClear
12:55 AM26.6 °F24.8 °F93 %29.84 in10.0 miWest (270°)9.2 mphClear
1:15 AM26.6 °F24.8 °F93 %29.83 in10.0 miWest (270°)9.2 mphClear
1:35 AM26.6 °F24.8 °F93 %29.82 in10.0 miWest (280°)9.2 mphClear
1:55 AM24.8 °F23.0 °F93 %29.82 in10.0 miWest (280°)9.2 mphClear
2:15 AM24.8 °F23.0 °F93 %29.82 in10.0 miWest (270°)10.4 mphClear
2:35 AM24.8 °F23.0 °F93 %29.82 in10.0 miWest (280°)9.2 mphClear
2:55 AM24.8 °F23.0 °F93 %29.81 in10.0 miWest (270°)10.4 mphClear
3:15 AM24.8 °F23.0 °F93 %29.81 in10.0 miWest (270°)10.4 mphClear
3:35 AM24.8 °F23.0 °F93 %29.80 in10.0 miWest (270°)9.2 mphClear
3:55 AM24.8 °F23.0 °F93 %29.80 in10.0 miWest (260°)5.8 mphScattered Clouds
4:15 AM24.8 °F23.0 °F93 %29.79 in10.0 miWest (270°)8.1 mphOvercast
4:35 AM24.8 °F23.0 °F93 %29.79 in10.0 miWest (270°)10.4 mphOvercast
4:55 AM26.6 °F24.8 °F93 %29.78 in10.0 miWest (270°)9.2 mphOvercast
5:15 AM26.6 °F24.8 °F93 %29.78 in10.0 miWest (270°)11.5 mphOvercast
5:35 AM26.6 °F24.8 °F93 %29.78 in10.0 miWest (260°)10.4 mphOvercast
5:55 AM26.6 °F24.8 °F93 %29.79 in10.0 miWSW (250°)11.5 mphOvercast
6:15 AM26.6 °F24.8 °F93 %29.78 in10.0 miWest (260°)10.4 mphOvercast
6:35 AM26.6 °F24.8 °F93 %29.78 in10.0 miWest (270°)11.5 mphOvercast
6:55 AM26.6 °F24.8 °F93 %29.78 in10.0 miWest (260°)10.4 mphOvercast
7:15 AM26.6 °F24.8 °F93 %29.77 in10.0 miWest (260°)10.4 mphOvercast
7:35 AM24.8 °F23.0 °F93 %29.77 in10.0 miWSW (250°)9.2 mphScattered Clouds
7:55 AM24.8 °F24.8 °F100 %29.78 in10.0 miWest (260°)8.1 mphClear
8:15 AM26.6 °F24.8 °F93 %29.78 in10.0 miWSW (240°)6.9 mphClear
8:35 AM26.6 °F26.6 °F100 %29.78 in10.0 miWSW (240°)6.9 mphClear
8:55 AM30.2 °F26.6 °F86 %29.78 in10.0 miWest (260°)8.1 mphClear
9:15 AM30.2 °F26.6 °F86 %29.77 in10.0 miWSW (250°)8.1 mphClear
9:35 AM32.0 °F28.4 °F87 %29.77 in10.0 miWSW (250°)12.7 mphPartly Cloudy
9:55 AM32.0 °F30.2 °F93 %29.77 in10.0 miWSW (240°)10.4 mphScattered Clouds
10:15 AM33.8 °F30.2 °F87 %29.76 in10.0 miWSW (240°)11.5 mphScattered Clouds
10:35 AM35.6 °F30.2 °F81 %29.76 in10.0 miSW (230°)11.5 mphClear
10:55 AM35.6 °F32.0 °F87 %29.75 in10.0 miWSW (240°)10.4 mphClear
11:15 AM37.4 °F32.0 °F81 %29.75 in10.0 miSW (230°)11.5 mphClear
11:35 AM39.2 °F32.0 °F75 %29.75 in10.0 miWSW (240°)12.7 mphClear
11:55 AM39.2 °F32.0 °F75 %29.74 in10.0 miSW (230°)12.7 mphClear
12:15 PM41.0 °F33.8 °F76 %29.73 in10.0 miSW (230°)12.7 mphClear
12:35 PM42.8 °F33.8 °F70 %29.72 in10.0 miSW (230°)18.4 mphClear
12:55 PM42.8 °F33.8 °F70 %29.71 in10.0 miSW (230°)16.1 mph21.9 mphClear
1:15 PM44.6 °F35.6 °F71 %29.70 in10.0 miSW (230°)16.1 mphClear
1:35 PM44.6 °F35.6 °F71 %29.69 in10.0 miSW (230°)16.1 mphClear
1:55 PM46.4 °F33.8 °F62 %29.68 in10.0 miWSW (240°)16.1 mph21.9 mphClear
2:15 PM46.4 °F33.8 °F62 %29.67 in10.0 miWSW (250°)17.3 mphClear
2:35 PM46.4 °F33.8 °F62 %29.67 in10.0 miWSW (240°)18.4 mphClear
2:55 PM46.4 °F32.0 °F57 %29.66 in10.0 miWSW (250°)19.6 mph25.3 mphClear
3:15 PM46.4 °F33.8 °F62 %29.65 in10.0 miWSW (250°)16.1 mph24.2 mphMostly Cloudy
3:35 PM48.2 °F33.8 °F58 %29.65 in10.0 miWSW (250°)11.5 mphOvercast
3:55 PM46.4 °F32.0 °F57 %29.65 in10.0 miWest (260°)15.0 mph21.9 mphOvercast
4:15 PM44.6 °F33.8 °F66 %29.65 in10.0 miWest (270°)11.5 mphMostly Cloudy
4:35 PM44.6 °F33.8 °F66 %29.64 in10.0 miWest (260°)9.2 mphMostly Cloudy
4:55 PM42.8 °F32.0 °F66 %29.63 in10.0 miWSW (250°)10.4 mphOvercast
5:15 PM42.8 °F33.8 °F70 %29.63 in10.0 miWSW (250°)9.2 mphOvercast
5:35 PM41.0 °F33.8 °F76 %29.64 in10.0 miWSW (250°)8.1 mphOvercast
5:55 PM41.0 °F32.0 °F70 %29.64 in10.0 miWSW (250°)9.2 mphOvercast
6:15 PM42.8 °F32.0 °F66 %29.64 in10.0 miWest (270°)15.0 mphOvercast
6:35 PM41.0 °F32.0 °F70 %29.64 in10.0 miWest (270°)15.0 mphOvercast
6:55 PM39.2 °F32.0 °F75 %29.64 in10.0 miWest (270°)12.7 mphOvercast
7:15 PM37.4 °F32.0 °F81 %29.64 in10.0 miWest (270°)12.7 mphScattered Clouds
7:35 PM37.4 °F32.0 °F81 %29.64 in10.0 miWest (270°)12.7 mphClear
7:55 PM37.4 °F32.0 °F81 %29.65 in10.0 miWest (270°)12.7 mph20.7 mphClear
8:15 PM37.4 °F32.0 °F81 %29.65 in10.0 miWest (280°)15.0 mphScattered Clouds
8:35 PM37.4 °F32.0 °F81 %29.65 in10.0 miWest (270°)13.8 mphScattered Clouds
8:55 PM35.6 °F32.0 °F87 %29.65 in10.0 miWest (280°)12.7 mphClear
9:15 PM37.4 °F32.0 °F81 %29.66 in10.0 miWest (280°)11.5 mphPartly Cloudy
9:35 PM35.6 °F32.0 °F87 %29.66 in10.0 miWest (280°)12.7 mphClear
9:55 PM35.6 °F32.0 °F87 %29.66 in10.0 miWNW (290°)15.0 mphClear
10:15 PM35.6 °F32.0 °F87 %29.67 in10.0 miWest (280°)15.0 mphClear
10:35 PM35.6 °F32.0 °F87 %29.67 in10.0 miWNW (290°)15.0 mphClear
10:55 PM35.6 °F32.0 °F87 %29.68 in10.0 miWNW (300°)17.3 mphClear
11:15 PM35.6 °F32.0 °F87 %29.67 in10.0 miWNW (290°)17.3 mphClear
11:35 PM33.8 °F32.0 °F93 %29.67 in10.0 miWNW (290°)16.1 mphClear
11:55 PM33.8 °F32.0 °F93 %29.68 in10.0 miWNW (290°)17.3 mphClear
Hourly data recorded from KSLB, located miles away from Galva, Iowa







STORIES FROM OUR PARTNERS